User: anonymous   Login
Location: Unspecified
(0.0000°N, 0.0000°E)
Time: 16:41:45
(UTC+02:00)
Language:

SJ-6B - Orbit

View from above orbital plane
View from above orbital plane
View from above satellite
View from above satellite

Ground track
Ground track

The orbit data is extracted from the following two-line orbital elements,

1 28415U 04035C   16241.54649345  .00001071  00000-0  76077-4 0  9996
2 28415  97.7744 262.7709 0053598  35.3672 325.1090 15.05825131654533
Epoch (UTC): 28 August 2016 13:06:57
Eccentricity: 0.0053598
inclination: 97.7744°
perigee height: 512 km
apogee height: 586 km
right ascension of ascending node: 262.7709°
argument of perigee: 35.3672°
revolutions per day: 15.05825131
mean anomaly at epoch: 325.1090°
orbit number at epoch: 65453

The dashed part of the orbit path shows where the satellite is in the earth's shadow,  

DLR